• In Romania
  • List of Countries
  • For 7 days
  • Water Temperature
  • Satellite Maps
  • Weather Map
  • Weather Widgets
  • user-avatar
    Login

    Hourly Weather Sveti Vlas

    Today, 17 December, Sunday

    Time Temperature Precipitation Wind Pressure Humidity
    00:00 +13°C° 0.7 mm 5 mps 751 mmHg 79%
    01:00 +12°C° 0.7 mm 4 mps 751 mmHg 81%
    02:00 +12°C° 0 mm 3 mps 750 mmHg 81%
    03:00 +11°C° 1.2 mm 3 mps 750 mmHg 81%
    04:00 +11°C° 1.2 mm 4 mps 750 mmHg 82%
    05:00 +9°C° 1.2 mm 5 mps 750 mmHg 82%
    06:00 +9°C° 1.7 mm 5 mps 750 mmHg 83%
    07:00 +8°C° 1.7 mm 5 mps 750 mmHg 84%
    08:00 +8°C° 1.7 mm 5 mps 750 mmHg 86%
    09:00 +8°C° 1.8 mm 5 mps 750 mmHg 88%
    10:00 +8°C° 1.8 mm 5 mps 750 mmHg 89%
    11:00 +8°C° 1.8 mm 4 mps 750 mmHg 91%
    12:00 +7°C° 2.8 mm 5 mps 749 mmHg 91%
    13:00 +7°C° 2.8 mm 5 mps 749 mmHg 91%
    14:00 +7°C° 2.8 mm 6 mps 749 mmHg 91%
    15:00 +7°C° 1.2 mm 6 mps 749 mmHg 89%
    16:00 +7°C° 1.2 mm 6 mps 749 mmHg 88%
    17:00 +5°C° 1.2 mm 7 mps 749 mmHg 87%
    18:00 +5°C° 0.1 mm 7 mps 750 mmHg 86%
    19:00 +5°C° 0.1 mm 7 mps 750 mmHg 85%
    20:00 +4°C° 0.1 mm 7 mps 751 mmHg 84%
    21:00 +4°C° 0 mm 7 mps 752 mmHg 84%
    22:00 +3°C° 0 mm 7 mps 752 mmHg 83%
    23:00 +3°C° 0 mm 7 mps 753 mmHg 83%

    Tomorrow, 18 December, Monday

    Time Temperature Precipitation Wind Pressure Humidity
    00:00 +3°C° 0 mm 6 mps 754 mmHg 83%
    01:00 +2°C° 0 mm 6 mps 754 mmHg 84%
    02:00 +2°C° 0 mm 6 mps 755 mmHg 85%
    03:00 +1°C° 0 mm 6 mps 755 mmHg 86%
    04:00 +1°C° 0 mm 5 mps 756 mmHg 87%
    05:00 +1°C° 0 mm 5 mps 756 mmHg 87%
    06:00 +1°C° 0 mm 4 mps 756 mmHg 88%
    07:00 +1°C° 0 mm 4 mps 757 mmHg 88%
    08:00 +1°C° 0 mm 4 mps 757 mmHg 89%
    09:00 +3°C° 0 mm 4 mps 758 mmHg 84%
    10:00 +4°C° 0 mm 3 mps 758 mmHg 78%
    11:00 +4°C° 0 mm 3 mps 758 mmHg 73%
    12:00 +5°C° 0 mm 3 mps 758 mmHg 71%
    13:00 +5°C° 0 mm 3 mps 758 mmHg 69%
    14:00 +7°C° 0 mm 3 mps 757 mmHg 67%
    15:00 +5°C° 0 mm 3 mps 757 mmHg 69%
    16:00 +5°C° 0 mm 3 mps 757 mmHg 72%
    17:00 +4°C° 0 mm 3 mps 757 mmHg 74%
    18:00 +4°C° 0.1 mm 3 mps 757 mmHg 76%
    19:00 +4°C° 0.1 mm 4 mps 757 mmHg 78%
    20:00 +3°C° 0.1 mm 4 mps 758 mmHg 80%
    21:00 +2°C° 0.1 mm 5 mps 758 mmHg 80%
    22:00 +2°C° 0.1 mm 5 mps 758 mmHg 79%
    23:00 +2°C° 0.1 mm 6 mps 758 mmHg 79%

    Day after tomorrow, 19 December, Tuesday

    Time Temperature Precipitation Wind Pressure Humidity
    00:00 +2°C° 0.4 mm 7 mps 758 mmHg 80%
    01:00 0°C° 0.4 mm 7 mps 758 mmHg 81%
    02:00 0°C° 0.4 mm 8 mps 757 mmHg 82%
    03:00 0°C° 0.5 mm 8 mps 757 mmHg 82%
    04:00 0°C° 0.5 mm 9 mps 757 mmHg 83%
    05:00 0°C° 0.5 mm 9 mps 757 mmHg 84%
    06:00 -1°C° 1 mm 9 mps 757 mmHg 85%
    07:00 -1°C° 1 mm 9 mps 758 mmHg 86%
    08:00 -1°C° 1 mm 9 mps 758 mmHg 87%
    09:00 -3°C° 1.1 mm 10 mps 759 mmHg 88%
    10:00 -3°C° 1.1 mm 10 mps 759 mmHg 89%
    11:00 -3°C° 1.1 mm 10 mps 760 mmHg 90%
    12:00 -3°C° 0.4 mm 10 mps 760 mmHg 88%
    13:00 -2°C° 0.4 mm 10 mps 760 mmHg 87%
    14:00 -2°C° 0.4 mm 10 mps 760 mmHg 85%
    15:00 -2°C° 0.2 mm 10 mps 760 mmHg 85%
    16:00 -1°C° 0.2 mm 9 mps 760 mmHg 84%
    17:00 -3°C° 0.2 mm 9 mps 761 mmHg 83%
    18:00 -3°C° 0.2 mm 9 mps 761 mmHg 84%
    19:00 -2°C° 0.2 mm 8 mps 761 mmHg 84%
    20:00 -4°C° 0.2 mm 8 mps 762 mmHg 85%
    21:00 -4°C° 0.2 mm 8 mps 762 mmHg 86%
    22:00 -4°C° 0.2 mm 8 mps 762 mmHg 86%
    23:00 -4°C° 0.2 mm 8 mps 762 mmHg 87%

    20 December, Wednesday

    Time Temperature Precipitation Wind Pressure Humidity
    00:00 -4°C° 0.3 mm 8 mps 762 mmHg 88%
    01:00 -4°C° 0.3 mm 8 mps 762 mmHg 88%
    02:00 -4°C° 0.3 mm 8 mps 762 mmHg 89%
    03:00 -4°C° 0.5 mm 8 mps 762 mmHg 89%
    04:00 -4°C° 0.5 mm 8 mps 763 mmHg 89%
    05:00 -5°C° 0.5 mm 8 mps 763 mmHg 90%
    06:00 -4°C° 0.4 mm 7 mps 763 mmHg 90%
    07:00 -4°C° 0.4 mm 7 mps 763 mmHg 89%
    08:00 -4°C° 0.4 mm 7 mps 764 mmHg 89%
    09:00 -4°C° 0.2 mm 6 mps 764 mmHg 87%
    10:00 -3°C° 0.2 mm 6 mps 764 mmHg 85%
    11:00 -2°C° 0.2 mm 6 mps 765 mmHg 83%
    12:00 -2°C° 0.1 mm 6 mps 765 mmHg 83%
    13:00 -1°C° 0.1 mm 5 mps 765 mmHg 82%
    14:00 -1°C° 0.1 mm 5 mps 765 mmHg 81%
    15:00 -1°C° 0 mm 5 mps 765 mmHg 84%
    16:00 -2°C° 0 mm 5 mps 765 mmHg 86%
    17:00 -3°C° 0 mm 4 mps 765 mmHg 88%
    18:00 -4°C° 0 mm 4 mps 766 mmHg 88%
    19:00 -4°C° 0 mm 4 mps 766 mmHg 89%
    20:00 -4°C° 0 mm 4 mps 766 mmHg 90%
    21:00 -4°C° 0 mm 4 mps 767 mmHg 90%
    22:00 -5°C° 0 mm 3 mps 767 mmHg 90%
    23:00 -5°C° 0 mm 3 mps 767 mmHg 90%

    21 December, Thursday

    Time Temperature Precipitation Wind Pressure Humidity
    00:00 -5°C° 0 mm 3 mps 767 mmHg 90%
    01:00 -5°C° 0 mm 3 mps 767 mmHg 89%
    02:00 -5°C° 0 mm 3 mps 767 mmHg 88%
    03:00 -5°C° 0 mm 3 mps 767 mmHg 87%
    04:00 -5°C° 0 mm 3 mps 767 mmHg 86%
    05:00 -4°C° 0 mm 2 mps 767 mmHg 85%
    06:00 -4°C° 0 mm 2 mps 767 mmHg 84%
    07:00 -4°C° 0 mm 2 mps 767 mmHg 83%
    08:00 -4°C° 0 mm 2 mps 767 mmHg 83%
    09:00 -3°C° 0 mm 2 mps 767 mmHg 80%
    10:00 -2°C° 0 mm 2 mps 767 mmHg 77%
    11:00 0°C° 0 mm 3 mps 767 mmHg 75%
    12:00 0°C° 0 mm 3 mps 766 mmHg 75%
    13:00 +1°C° 0 mm 3 mps 766 mmHg 75%
    14:00 +1°C° 0 mm 3 mps 765 mmHg 75%
    15:00 0°C° 0 mm 3 mps 765 mmHg 78%
    16:00 -1°C° 0 mm 3 mps 765 mmHg 81%
    17:00 -2°C° 0 mm 3 mps 764 mmHg 84%
    18:00 -2°C° 0 mm 3 mps 765 mmHg 84%
    19:00 -4°C° 0 mm 3 mps 765 mmHg 84%
    20:00 -4°C° 0 mm 3 mps 765 mmHg 84%
    21:00 -4°C° 0 mm 3 mps 765 mmHg 83%
    22:00 -4°C° 0 mm 4 mps 765 mmHg 82%
    23:00 -5°C° 0 mm 4 mps 764 mmHg 81%

    22 December, Friday

    Time Temperature Precipitation Wind Pressure Humidity
    00:00 -5°C° 0 mm 4 mps 764 mmHg 80%
    01:00 -5°C° 0 mm 4 mps 764 mmHg 80%
    02:00 -5°C° 0 mm 4 mps 764 mmHg 79%
    03:00 -5°C° 0 mm 4 mps 763 mmHg 78%
    04:00 -5°C° 0 mm 4 mps 763 mmHg 78%
    05:00 -5°C° 0 mm 4 mps 763 mmHg 77%
    06:00 -5°C° 0 mm 4 mps 763 mmHg 77%
    07:00 -5°C° 0 mm 4 mps 763 mmHg 76%
    08:00 -4°C° 0 mm 4 mps 763 mmHg 76%
    09:00 -3°C° 0 mm 4 mps 763 mmHg 75%
    10:00 -1°C° 0 mm 4 mps 763 mmHg 74%
    11:00 0°C° 0 mm 4 mps 763 mmHg 73%
    12:00 0°C° 0 mm 4 mps 762 mmHg 75%
    13:00 +1°C° 0 mm 5 mps 762 mmHg 77%
    14:00 +2°C° 0 mm 5 mps 761 mmHg 79%
    15:00 0°C° 0 mm 4 mps 761 mmHg 82%
    16:00 -1°C° 0 mm 4 mps 761 mmHg 84%
    17:00 -2°C° 0 mm 4 mps 761 mmHg 87%
    18:00 -2°C° 0 mm 4 mps 761 mmHg 87%
    19:00 -1°C° 0 mm 3 mps 761 mmHg 87%
    20:00 -2°C° 0 mm 3 mps 761 mmHg 87%
    21:00 -2°C° 0 mm 3 mps 761 mmHg 87%
    22:00 -2°C° 0 mm 3 mps 760 mmHg 86%
    23:00 -2°C° 0 mm 2 mps 760 mmHg 86%
    Show more